星链-35436(STARLINK-35436)

导读

STARLINK-35436是美国SpaceX公司星链星座的一颗卫星,于2025年10月8日发射。作为星链计划的组成部分,它旨在为全球提供高速低延迟互联网服务,尤其覆盖偏远与网络基础设施匮乏地区。依托一箭多星发射技术,该卫星入轨后将进一步扩充星链星座规模,提升全球网络覆盖能力与服务稳定性。

基本信息
目录编号:
65932
目录名称:
STARLINK-35436
国际标识:
2025-225Y
轨道中心:
EARTH
卫星名称:
星链-35436
卫星全名:
星链-35436(STARLINK-35436)
卫星状态:
在轨 (已飞行342 天)
发射日期:
2025-10-08 UTC
国别 :
美国 (US)
星等 :
--
该卫星已列入 空间交会检测服务 Space Conjunction Data Service (SCDS) ,当前飞行风险评估等级: 无高风险
轨道信息
数据来源 国际轨道数据 AOE轨道数据
星历时间 2026-09-14T16:08:18+0800
22小时前
查看轨道信息
2026-09-13T12:00:00+0800
2天前
查看轨道信息
半长轴 6840.874km 6840.898km
偏心率 0.000186 0.0000969
轨道倾角 53.163° 53.161°
近地点辐角 96.099° 100.421°
升交点赤经 8.535° 14.019°
平近点角 264.023° 259.764°
近地点 461.464km 462.098km
远地点 464.01km 463.424km
周期 93.848分钟 93.849分钟
每日圈数 15.343888 15.343806
详细信息
固有亮度:
5
最大亮度:
2.5
卫星平台:
Starlink V1.0
覆盖范围:
全球
运营商:
太空探索技术公司
运营商所在国:
美国
制造商(研发单位):
太空探索技术公司
制造商所在国:
美国
使用方式:
暂无
卫星简介
Starlink 计划是 SpaceX 推出的全球卫星互联网项目,通过发射低轨道卫星,为全球尤其是偏远地区提供高速、低延迟的互联网服务。自 2019 年起,Starlink 已部署数千颗卫星,旨在缩小全球数字鸿沟,推动互联网普及。该项目还为军事、航空等行业提供通信支持,带来广泛经济效益。
2D轨道图
3D轨道图
轨道高度分析图
轨道倾角分析图
轨道综合分析图
查看轨道综合分析图
交会数据列表
事件ID 空间交会对象 最接近时刻(TCA) 交会距离 交会风险概率(CRP) 交会风险指数(CRI) 操作
CDM_260917-074606-593206-607221
2026-09-17T
07:46:10+0000
1.060 km
极远距离
1.392954E-5 中风险 0.58
CDM_260917-061406-415506-593221
2026-09-17T
06:14:39+0000
1.113 km
极远距离
1.205803E-5 中风险 0.57
CDM_260917-063306-590806-593221
2026-09-17T
06:33:50+0000
2.161 km
极远距离
2.080627E-6 低风险 0.41
CDM_260913-025504-946006-593221
2026-09-13T
02:55:37+0000
2.040 km
极远距离
1.734613E-6 低风险 0.4
CDM_260917-050006-590806-593221
2026-09-17T
05:00:03+0000
2.665 km
极远距离
1.394784E-6 低风险 0.38
CDM_260912-212704-946006-593221
2026-09-12T
21:27:23+0000
2.426 km
极远距离
1.207733E-6 低风险 0.37
CDM_260917-070106-415506-593221
2026-09-17T
07:01:33+0000
2.550 km
极远距离
1.176378E-6 低风险 0.36
CDM_260915-190204-942206-593221
2026-09-15T
19:02:22+0000
2.702 km
极远距离
1.083049E-6 低风险 0.36
与全量物体交会距离演化趋势 订阅飞行安全评估服务
与全量物体交会风险概率演化趋势 订阅飞行安全评估服务